Location: Kawakawa
(35.3830°S, 174.0670°E)
Time: 02:44:35
(UTC+12:00)

CZ-2C R/B - Pass Details

Date: 15 August 2020
Orbit: 784 x 870 km, 98.3° (Epoch: 19 September)

Event Time Altitude Azimuth Distance (km) Brightness Sun altitude
Rises 18:39:20 0° 39° (NE) 3,368 5.5 -10.2°
Reaches altitude 10° 18:41:50 10° 48° (NE) 2,456 4.8 -10.7°
Maximum altitude 18:46:42 34° 111° (ESE) 1,381 3.3 -11.7°
Drops below altitude 10° 18:51:42 10° 173° (S) 2,526 5.0 -12.7°
Sets 18:54:19 0° 182° (S) 3,479 5.8 -13.2°
